DECAYED

DMSP 5D-2 F13 DEB, 40481 (Decayed)

Orbit data source: Space-Track

DMSP 5D-2 F13 DEB, 40481 was space debris in SSO originally from a launch on Fri, 24 Mar 1995 UTC launched from the Air Force Western Test Range (AFWTR). Debris objects in space refer to the collection of defunct objects orbiting the Earth. Examples of debris include non-operational satellites, rocket bodies, and fragments generated from explosions, collisions, or faulty payload assembly.

Not visible in the next 10 days
Identifier
40481, 1995-015BZ
Orbit
Decayed
Last TLE update
3 months ago
Origin
Manufacturer
Unknown
Mission
Decayed spacecraft
Bus & Motor
Unknown
Mass
Unknown
Launch date (UTC)
1995-03-24 (30 years ago)
Launch vehicle
Unknown
Launch site
Air Force Western Test Range (AFWTR)
Object type
Payload
Rocket body
Debris
Shape & HBR
Unknown
Radar Cross Section
Small (<0.1 m²)

Expand to show TLE details & history

TLE from 3 months ago
0 DMSP 5D-2 F13 DEB
1 40481U 95015BZ  25110.88168360  .00297793  00000-0  19319-1 0  9997
2 40481  98.5623  83.1741 0022086  86.7552 273.6199 15.06388858522544
Epoch: 2025-04-20T21:09Z
TLE epoch observation values (Epoch: 2025-04-20T21:09:37.463Z)
Latitude
0.00004°
Longitude
-83.43616°
Altitude
549.35 km
Speed
7.588 km/s
True Right ascension
05h 32m 41s
True Declination
0° 00' 00"
Sunlit
Object was in daylight at epoch
Visualization orbit readout
Visualization observer readout
Orbital elements
Apogee altitude
559.571 km
Perigee altitude
528.994 km
Semi-major axis
6,922.42 km
Eccentricity
0.00221
Inclination
98.5623°
RAAN
83.1741°
Arg. of periapsis
86.7552°
True anomaly
Unknown
Mean anomaly
273.6199°
Eccentric anomaly
Unknown
Mean motion
3.76839 °/min
Orbital period
95.53 mins
BSTAR
0.019319
Loading maneuver chart data...
Loading SW <> Apogee altitude chart data...

DMSP 5D-2 F13 DEB Visibility

Observer location: undefined°, undefined°

This satellite is decayed
Span
Click to sort rows by Start time (UTC) header in descending order
Start Az.
Max El. time (UTC)
Max El. Az.
Max El.
End time (UTC)
End Az.
|